• In India
  • List of Countries
  • For 7 days
  • Water Temperature
  • Satellite Maps
  • Weather Map
  • Weather Widgets
  • user-avatar
    Login

    Hourly Weather Bururi

    Today, 21 September, Friday

    Time Temperature Precipitation Wind Pressure Humidity
    00:00 +19°C° 0.1 mm 2 mps 617 mmHg 58%
    01:00 +19°C° 0.1 mm 2 mps 616 mmHg 59%
    02:00 +19°C° 0.1 mm 2 mps 616 mmHg 60%
    03:00 +19°C° 0.1 mm 2 mps 616 mmHg 60%
    04:00 +18°C° 0.1 mm 2 mps 616 mmHg 61%
    05:00 +19°C° 0.1 mm 1 mps 616 mmHg 62%
    06:00 +19°C° 0.1 mm 2 mps 617 mmHg 58%
    07:00 +20°C° 0.1 mm 2 mps 618 mmHg 55%
    08:00 +21°C° 0.1 mm 2 mps 618 mmHg 51%
    09:00 +24°C° 0 mm 2 mps 619 mmHg 46%
    10:00 +26°C° 0 mm 3 mps 619 mmHg 42%
    11:00 +28°C° 0 mm 3 mps 620 mmHg 37%
    12:00 +27°C° 0 mm 3 mps 619 mmHg 38%
    13:00 +27°C° 0 mm 2 mps 618 mmHg 38%
    14:00 +27°C° 0 mm 2 mps 617 mmHg 38%
    15:00 +26°C° 0.1 mm 2 mps 617 mmHg 39%
    16:00 +26°C° 0.1 mm 2 mps 617 mmHg 40%
    17:00 +25°C° 0.1 mm 2 mps 616 mmHg 42%
    18:00 +24°C° 0.2 mm 2 mps 616 mmHg 46%
    19:00 +23°C° 0.2 mm 2 mps 616 mmHg 50%
    20:00 +20°C° 0.2 mm 2 mps 617 mmHg 54%
    21:00 +20°C° 0.1 mm 2 mps 617 mmHg 54%
    22:00 +20°C° 0.1 mm 2 mps 617 mmHg 55%
    23:00 +20°C° 0.1 mm 2 mps 617 mmHg 55%

    Tomorrow, 22 September, Saturday

    Time Temperature Precipitation Wind Pressure Humidity
    00:00 +19°C° 0 mm 2 mps 616 mmHg 57%
    01:00 +19°C° 0 mm 2 mps 616 mmHg 59%
    02:00 +18°C° 0 mm 2 mps 615 mmHg 61%
    03:00 +19°C° 0 mm 1 mps 615 mmHg 61%
    04:00 +19°C° 0 mm 1 mps 615 mmHg 61%
    05:00 +19°C° 0 mm 1 mps 616 mmHg 61%
    06:00 +19°C° 0 mm 2 mps 616 mmHg 56%
    07:00 +21°C° 0 mm 2 mps 617 mmHg 51%
    08:00 +23°C° 0 mm 2 mps 618 mmHg 47%
    09:00 +25°C° 0 mm 3 mps 619 mmHg 41%
    10:00 +27°C° 0 mm 3 mps 619 mmHg 36%
    11:00 +30°C° 0 mm 3 mps 620 mmHg 30%
    12:00 +30°C° 0 mm 3 mps 619 mmHg 30%
    13:00 +29°C° 0 mm 3 mps 618 mmHg 29%
    14:00 +29°C° 0 mm 3 mps 617 mmHg 29%
    15:00 +29°C° 0 mm 3 mps 617 mmHg 31%
    16:00 +28°C° 0 mm 2 mps 616 mmHg 33%
    17:00 +27°C° 0 mm 2 mps 616 mmHg 35%
    18:00 +25°C° 0 mm 2 mps 616 mmHg 38%
    19:00 +24°C° 0 mm 2 mps 616 mmHg 42%
    20:00 +22°C° 0 mm 1 mps 617 mmHg 46%
    21:00 +22°C° 0 mm 1 mps 617 mmHg 46%
    22:00 +22°C° 0 mm 1 mps 617 mmHg 47%
    23:00 +22°C° 0 mm 1 mps 617 mmHg 48%

    Day after tomorrow, 23 September, Sunday

    Time Temperature Precipitation Wind Pressure Humidity
    00:00 +21°C° 0 mm 1 mps 617 mmHg 48%
    01:00 +21°C° 0 mm 1 mps 616 mmHg 49%
    02:00 +21°C° 0 mm 1 mps 615 mmHg 50%
    03:00 +20°C° 0 mm 1 mps 615 mmHg 51%
    04:00 +20°C° 0 mm 1 mps 615 mmHg 53%
    05:00 +19°C° 0 mm 1 mps 615 mmHg 55%
    06:00 +20°C° 0 mm 2 mps 616 mmHg 51%
    07:00 +21°C° 0 mm 2 mps 617 mmHg 48%
    08:00 +22°C° 0 mm 3 mps 619 mmHg 44%
    09:00 +25°C° 0 mm 3 mps 619 mmHg 40%
    10:00 +27°C° 0 mm 3 mps 620 mmHg 35%
    11:00 +30°C° 0 mm 3 mps 620 mmHg 31%
    12:00 +29°C° 0 mm 3 mps 619 mmHg 32%
    13:00 +28°C° 0 mm 3 mps 618 mmHg 32%
    14:00 +28°C° 0 mm 3 mps 617 mmHg 33%
    15:00 +27°C° 0 mm 2 mps 617 mmHg 34%
    16:00 +27°C° 0 mm 2 mps 617 mmHg 35%
    17:00 +26°C° 0 mm 2 mps 616 mmHg 37%
    18:00 +25°C° 0 mm 2 mps 616 mmHg 40%
    19:00 +24°C° 0 mm 2 mps 617 mmHg 44%
    20:00 +22°C° 0 mm 1 mps 617 mmHg 48%
    21:00 +22°C° 0 mm 1 mps 617 mmHg 50%
    22:00 +21°C° 0 mm 1 mps 616 mmHg 51%
    23:00 +20°C° 0 mm 2 mps 616 mmHg 53%

    24 September, Monday

    Time Temperature Precipitation Wind Pressure Humidity
    00:00 +19°C° 0 mm 2 mps 616 mmHg 53%
    01:00 +19°C° 0 mm 2 mps 616 mmHg 54%
    02:00 +19°C° 0 mm 2 mps 615 mmHg 55%
    03:00 +19°C° 0 mm 2 mps 615 mmHg 56%
    04:00 +18°C° 0 mm 2 mps 615 mmHg 56%
    05:00 +18°C° 0 mm 2 mps 616 mmHg 57%
    06:00 +19°C° 0 mm 2 mps 617 mmHg 52%
    07:00 +21°C° 0 mm 2 mps 618 mmHg 47%
    08:00 +22°C° 0 mm 3 mps 619 mmHg 41%
    09:00 +25°C° 0 mm 3 mps 619 mmHg 38%
    10:00 +27°C° 0 mm 3 mps 620 mmHg 35%
    11:00 +29°C° 0 mm 3 mps 620 mmHg 31%
    12:00 +28°C° 0 mm 3 mps 619 mmHg 31%
    13:00 +28°C° 0 mm 3 mps 618 mmHg 31%
    14:00 +28°C° 0 mm 3 mps 617 mmHg 31%
    15:00 +27°C° 0 mm 3 mps 616 mmHg 34%
    16:00 +26°C° 0 mm 2 mps 616 mmHg 36%
    17:00 +25°C° 0 mm 2 mps 616 mmHg 39%
    18:00 +24°C° 0 mm 2 mps 616 mmHg 42%
    19:00 +23°C° 0 mm 2 mps 617 mmHg 44%
    20:00 +22°C° 0 mm 1 mps 617 mmHg 47%
    21:00 +21°C° 0 mm 2 mps 617 mmHg 48%
    22:00 +20°C° 0 mm 2 mps 617 mmHg 49%
    23:00 +20°C° 0 mm 2 mps 617 mmHg 50%

    25 September, Tuesday

    Time Temperature Precipitation Wind Pressure Humidity
    00:00 +20°C° 0 mm 2 mps 616 mmHg 51%
    01:00 +19°C° 0 mm 2 mps 616 mmHg 53%
    02:00 +19°C° 0 mm 2 mps 615 mmHg 54%
    03:00 +19°C° 0 mm 2 mps 615 mmHg 55%
    04:00 +18°C° 0 mm 2 mps 615 mmHg 55%
    05:00 +18°C° 0 mm 2 mps 616 mmHg 56%
    06:00 +20°C° 0 mm 2 mps 617 mmHg 51%
    07:00 +21°C° 0 mm 2 mps 618 mmHg 46%
    08:00 +24°C° 0 mm 2 mps 619 mmHg 42%
    09:00 +25°C° 0 mm 2 mps 619 mmHg 38%
    10:00 +27°C° 0 mm 3 mps 619 mmHg 34%
    11:00 +29°C° 0 mm 3 mps 619 mmHg 30%
    12:00 +29°C° 0 mm 3 mps 618 mmHg 29%
    13:00 +29°C° 0 mm 3 mps 618 mmHg 29%
    14:00 +29°C° 0 mm 3 mps 617 mmHg 28%
    15:00 +28°C° 0 mm 3 mps 617 mmHg 31%
    16:00 +27°C° 0 mm 2 mps 616 mmHg 33%
    17:00 +26°C° 0 mm 2 mps 616 mmHg 35%
    18:00 +25°C° 0 mm 2 mps 616 mmHg 38%
    19:00 +24°C° 0 mm 1 mps 617 mmHg 41%
    20:00 +22°C° 0 mm 1 mps 617 mmHg 45%
    21:00 +22°C° 0 mm 1 mps 617 mmHg 46%
    22:00 +21°C° 0 mm 1 mps 616 mmHg 47%
    23:00 +21°C° 0 mm 1 mps 616 mmHg 49%

    26 September, Wednesday

    Time Temperature Precipitation Wind Pressure Humidity
    00:00 +21°C° 0 mm 1 mps 616 mmHg 50%
    01:00 +20°C° 0 mm 1 mps 615 mmHg 51%
    02:00 +19°C° 0 mm 2 mps 615 mmHg 53%
    03:00 +19°C° 0 mm 2 mps 615 mmHg 53%
    04:00 +18°C° 0 mm 2 mps 616 mmHg 53%
    05:00 +18°C° 0 mm 2 mps 616 mmHg 54%
    06:00 +20°C° 0 mm 2 mps 617 mmHg 50%
    07:00 +21°C° 0 mm 2 mps 618 mmHg 45%
    08:00 +24°C° 0 mm 2 mps 619 mmHg 41%
    09:00 +26°C° 0 mm 2 mps 619 mmHg 38%
    10:00 +28°C° 0 mm 3 mps 620 mmHg 34%
    11:00 +29°C° 0 mm 3 mps 620 mmHg 31%
    12:00 +29°C° 0 mm 3 mps 619 mmHg 32%
    13:00 +28°C° 0 mm 3 mps 618 mmHg 32%
    14:00 +28°C° 0 mm 3 mps 617 mmHg 33%
    15:00 +27°C° 0 mm 2 mps 616 mmHg 35%
    16:00 +26°C° 0 mm 2 mps 616 mmHg 37%
    17:00 +26°C° 0 mm 2 mps 616 mmHg 40%
    18:00 +25°C° 0.1 mm 2 mps 616 mmHg 42%
    19:00 +24°C° 0.1 mm 2 mps 616 mmHg 45%
    20:00 +23°C° 0.1 mm 2 mps 616 mmHg 47%
    21:00 +23°C° 0 mm 2 mps 616 mmHg 48%
    22:00 +21°C° 0 mm 2 mps 616 mmHg 49%
    23:00 +21°C° 0 mm 2 mps 616 mmHg 49%
    Show more